Milwaukee, WI (53201)

7:18 PM CDT on August 31, 2015 (GMT -0500)
Milwaukee Harbor | | Change Station
CLOSE
Current Station
Personal Weather Station
Location: Milwaukee, WI
Elevation: 591 ft
Nearby Weather Stations

Elev 591 ft 43.02 °N, 87.91 °W | Updated 5 seconds ago

Partly Cloudy
Partly Cloudy
70.7 °F
Feels Like 70.7 °F
N
0.0
Wind Variable Wind from ENE
Gusts 0.0 mph

Today
High -- | Low -- °F
--% Chance of Precip.
Yesterday
High -- | Low -- °F
Precip. -- in
6:14 AM 7:28 PM
Waning Gibbous, 93% visible
Pressure 30.01 in
Visibility 10.0 miles
Clouds Mostly Cloudy 25000 ft
Dew Point 66 °F
Humidity 85%
Rainfall 0.01 in
Snow Depth Not available.
UV 0.0 out of 12
Pollen 9.30 out of 12
Air Quality Not available.
Flu Activity Not available.
METAR KMKE 312352Z 13003KT 10SM BKN250 22/18 A3001 RMK AO2 SLP160 T02220183 10267 20222 56004
Pressure 30.01 in
Visibility 10.0 miles
Clouds Mostly Cloudy 25000 ft
Dew Point 66 °F
Humidity 85%
Rainfall 0.01 in
Snow Depth Not available.
UV 0.0 out of 12
Pollen 9.30 out of 12
Air Quality Not available.
Flu Activity Not available.
METAR KMKE 312352Z 13003KT 10SM BKN250 22/18 A3001 RMK AO2 SLP160 T02220183 10267 20222 56004

10-Day Weather Forecast

×

Almanac

Astronomy

Aug. 31, 2015 Rise Set
Actual Time
Civil Twilight
Nautical Twilight
Astronomical Twilight
Moon
Length of Visible Light
Length of Day
Tomorrow will be .
, % of the Moon is Illuminated

Today's Extremes

State Highs State Lows

Community

WunderPhotos

Upload Photos

1,851,403 photos uploaded!

WunderBlogs® & News

Nearby

Air Quality

  Air Quality AQ Index Pollutant
Not available.

Snow Depth

Station Depth Elevation

Earthquake Activity

City Distance Mag. Time & Date
Minimum magnitude displayed is 2.5.

Coastal Water Temperatures

Place Temperature

Stations

Nearby Weather Stations

Station Location Temp. Windchill Dew Point Humidity Wind Precip. Elev Updated Type